| time (UTC) | temp F | wind direction | speed knots | gust knots | rain 1hr in | rain 24hr in | rain mn in | humidity % | barometer mb |
| 20260509011406 | 61 | 197 | 8.7 | 20.9 | 0.00 | 1.44 | 0.05 | 76 | 998.9 |
| 20260509010906 | 60 | 335 | 6.1 | 17.4 | 0.00 | 1.44 | 0.05 | 78 | 999.0 |
| 20260509005906 | 60 | 254 | 6.1 | 15.6 | 0.00 | 1.44 | 0.05 | 79 | 999.1 |
| 20260509005407 | 60 | 221 | 8.7 | 17.4 | 0.00 | 1.45 | 0.05 | 79 | 999.0 |
| 20260509004907 | 60 | 203 | 8.7 | 18.2 | 0.00 | 1.45 | 0.05 | 79 | 999.0 |
| 20260509004407 | 60 | 215 | 7.8 | 21.7 | 0.00 | 1.45 | 0.05 | 79 | 999.0 |
| 20260509003908 | 60 | 201 | 7.8 | 17.4 | 0.00 | 1.45 | 0.05 | 80 | 999.0 |
| 20260509002906 | 60 | 209 | 8.7 | 17.4 | 0.00 | 1.45 | 0.05 | 81 | 999.2 |
| 20260509001408 | 60 | 195 | 8.7 | 17.4 | 0.00 | 1.45 | 0.05 | 81 | 999.2 |
| 20260509000407 | 60 | 223 | 7.8 | 19.1 | 0.00 | 1.45 | 0.05 | 82 | 999.2 |
| 20260508235906 | 60 | 218 | 8.7 | 20.0 | 0.00 | 1.45 | 0.05 | 83 | 999.1 |
| 20260508235406 | 60 | 327 | 8.7 | 18.2 | 0.00 | 1.45 | 0.05 | 83 | 999.1 |
| 20260508234907 | 60 | 225 | 8.7 | 20.0 | 0.00 | 1.45 | 0.05 | 84 | 999.1 |
| 20260508234407 | 60 | 213 | 9.6 | 20.0 | 0.00 | 1.45 | 0.05 | 85 | 999.1 |
| 20260508233907 | 60 | 279 | 7.0 | 20.9 | 0.00 | 1.45 | 0.05 | 87 | 999.1 |
| 20260508233408 | 59 | 211 | 8.7 | 20.9 | 0.01 | 1.45 | 0.05 | 87 | 999.0 |
| 20260508232907 | 60 | 346 | 7.8 | 18.2 | 0.01 | 1.45 | 0.05 | 88 | 998.9 |
| 20260508232407 | 60 | 276 | 5.2 | 17.4 | 0.01 | 1.45 | 0.05 | 88 | 999.0 |
| 20260508231907 | 59 | 296 | 7.8 | 19.1 | 0.01 | 1.45 | 0.05 | 89 | 999.0 |
| 20260508231408 | 59 | 248 | 6.1 | 13.0 | 0.01 | 1.45 | 0.05 | 89 | 999.1 |
| 20260508230906 | 59 | 221 | 5.2 | 14.8 | 0.01 | 1.45 | 0.05 | 89 | 999.0 |
| 20260508230407 | 59 | 258 | 6.1 | 15.6 | 0.01 | 1.45 | 0.05 | 89 | 999.0 |
| 20260508225409 | 58 | 320 | 5.2 | 13.0 | 0.02 | 1.45 | 0.05 | 89 | 999.0 |
| 20260508224907 | 59 | 308 | 3.5 | 12.2 | 0.02 | 1.45 | 0.05 | 89 | 999.0 |
| 20260508224407 | 59 | 264 | 6.1 | 11.3 | 0.02 | 1.46 | 0.05 | 89 | 998.9 |
| 20260508223907 | 59 | 209 | 7.0 | 19.1 | 0.02 | 1.46 | 0.05 | 88 | 998.8 |
| 20260508223408 | 60 | 243 | 7.8 | 20.0 | 0.01 | 1.45 | 0.04 | 89 | 998.5 |
| 20260508222408 | 59 | 323 | 7.8 | 17.4 | 0.01 | 1.45 | 0.04 | 89 | 998.5 |
| 20260508221907 | 59 | 335 | 7.8 | 19.1 | 0.02 | 1.45 | 0.04 | 89 | 998.4 |
| 20260508221407 | 59 | 341 | 6.1 | 18.2 | 0.02 | 1.45 | 0.04 | 89 | 998.4 |
| 20260508220907 | 58 | 273 | 5.2 | 12.2 | 0.02 | 1.45 | 0.04 | 89 | 998.4 |
| 20260508220407 | 58 | 357 | 4.3 | 10.4 | 0.02 | 1.45 | 0.04 | 89 | 998.3 |
| 20260508215907 | 58 | 252 | 5.2 | 13.0 | 0.02 | 1.45 | 0.04 | 89 | 998.2 |
| 20260508215407 | 58 | 249 | 4.3 | 12.2 | 0.02 | 1.44 | 0.03 | 90 | 998.3 |
| 20260508214906 | 58 | 319 | 4.3 | 13.9 | 0.02 | 1.44 | 0.03 | 90 | 998.2 |
| 20260508213907 | 57 | 285 | 5.2 | 13.9 | 0.02 | 1.46 | 0.03 | 89 | 998.1 |
| 20260508212909 | 58 | 248 | 5.2 | 12.2 | 0.02 | 1.46 | 0.03 | 89 | 998.1 |
| 20260508212407 | 58 | 326 | 3.5 | 12.2 | 0.02 | 1.46 | 0.03 | 90 | 998.1 |
| 20260508211907 | 58 | 352 | 3.5 | 10.4 | 0.02 | 1.45 | 0.02 | 89 | 998.1 |
| 20260508211408 | 58 | 302 | 2.6 | 10.4 | 0.01 | 1.44 | 0.02 | 89 | 998.1 |
| 20260508210907 | 58 | 217 | 2.6 | 7.8 | 0.01 | 1.44 | 0.02 | 89 | 998.0 |
| 20260508205906 | 58 | 290 | 2.6 | 7.8 | 0.01 | 1.44 | 0.02 | 89 | 998.0 |
| 20260508205407 | 58 | 253 | 3.5 | 7.8 | 0.01 | 1.44 | 0.02 | 89 | 998.0 |
| 20260508204907 | 58 | 287 | 2.6 | 10.4 | 0.01 | 1.44 | 0.02 | 88 | 997.9 |
| 20260508203906 | 58 | 291 | 1.7 | 7.8 | 0.00 | 1.43 | 0.01 | 88 | 997.7 |
| 20260508203406 | 58 | 226 | 3.5 | 7.0 | 0.00 | 1.43 | 0.01 | 88 | 997.6 |
| 20260508202906 | 58 | 213 | 1.7 | 7.0 | 0.00 | 1.43 | 0.01 | 88 | 997.5 |
| 20260508202407 | 58 | 306 | 3.5 | 10.4 | 0.00 | 1.43 | 0.01 | 87 | 997.5 |
| 20260508201907 | 58 | 303 | 2.6 | 13.0 | 0.00 | 1.43 | 0.01 | 87 | 997.5 |
| 20260508201407 | 59 | 265 | 2.6 | 10.4 | 0.00 | 1.43 | 0.01 | 86 | 997.5 |
| 20260508200906 | 59 | 239 | 3.5 | 10.4 | 0.00 | 1.43 | 0.01 | 85 | 997.5 |
| 20260508200407 | 59 | 285 | 5.2 | 13.9 | 0.00 | 1.43 | 0.01 | 84 | 997.3 |
| 20260508194906 | 60 | 339 | 8.7 | 17.4 | 0.00 | 1.43 | 0.01 | 84 | 997.2 |
| 20260508194408 | 60 | 345 | 7.8 | 17.4 | 0.00 | 1.43 | 0.01 | 84 | 997.1 |
| 20260508193408 | 60 | 343 | 10.4 | 19.1 | 0.00 | 1.43 | 0.01 | 83 | 996.9 |
| 20260508192408 | 60 | 344 | 10.4 | 20.0 | 0.00 | 1.43 | 0.01 | 83 | 996.8 |
| 20260508191907 | 60 | 339 | 11.3 | 18.2 | 0.00 | 1.43 | 0.01 | 84 | 997.0 |
| 20260508191408 | 60 | 352 | 12.2 | 20.9 | 0.00 | 1.43 | 0.01 | 84 | 996.9 |
| 20260508190906 | 60 | 337 | 11.3 | 20.0 | 0.00 | 1.43 | 0.01 | 84 | 996.8 |
| 20260508190408 | 60 | 353 | 10.4 | 19.1 | 0.00 | 1.43 | 0.01 | 84 | 996.7 |
| 20260508185407 | 60 | 351 | 10.4 | 22.6 | 0.00 | 1.44 | 0.01 | 84 | 996.6 |
| 20260508183906 | 60 | 346 | 11.3 | 20.0 | 0.00 | 1.48 | 0.01 | 84 | 996.7 |
| 20260508183407 | 60 | 340 | 11.3 | 21.7 | 0.00 | 1.50 | 0.01 | 84 | 996.9 |
| 20260508182907 | 60 | 344 | 7.0 | 18.2 | 0.00 | 1.50 | 0.01 | 83 | 996.9 |
| 20260508182406 | 60 | 352 | 8.7 | 17.4 | 0.00 | 1.50 | 0.01 | 82 | 997.0 |
| 20260508181906 | 60 | 349 | 11.3 | 20.0 | 0.00 | 1.51 | 0.01 | 82 | 997.1 |
| 20260508181408 | 60 | 337 | 10.4 | 19.1 | 0.00 | 1.52 | 0.01 | 81 | 997.2 |
| 20260508180408 | 60 | 343 | 8.7 | 17.4 | 0.00 | 1.54 | 0.01 | 83 | 997.3 |
| 20260508175907 | 61 | 332 | 11.3 | 21.7 | 0.00 | 1.55 | 0.01 | 82 | 997.4 |
| 20260508175408 | 61 | 352 | 10.4 | 26.1 | 0.00 | 1.57 | 0.01 | 81 | 997.5 |
| 20260508174906 | 61 | 346 | 9.6 | 20.9 | 0.00 | 1.59 | 0.01 | 81 | 997.5 |
| 20260508174408 | 61 | 352 | 7.8 | 17.4 | 0.00 | 1.61 | 0.01 | 81 | 997.5 |
| 20260508173906 | 61 | 351 | 10.4 | 20.9 | 0.00 | 1.68 | 0.01 | 80 | 997.6 |
| 20260508173408 | 61 | 344 | 12.2 | 21.7 | 0.00 | 1.76 | 0.01 | 81 | 997.6 |
| 20260508172907 | 61 | 353 | 13.9 | 22.6 | 0.00 | 1.76 | 0.01 | 81 | 997.6 |
| 20260508172407 | 60 | 348 | 12.2 | 26.9 | 0.00 | 1.77 | 0.01 | 82 | 997.7 |
| 20260508171907 | 60 | 348 | 10.4 | 17.4 | 0.00 | 1.78 | 0.01 | 82 | 997.7 |
| 20260508171408 | 60 | 344 | 10.4 | 22.6 | 0.00 | 1.79 | 0.01 | 82 | 997.7 |
| 20260508170907 | 60 | 353 | 8.7 | 20.0 | 0.00 | 1.79 | 0.01 | 82 | 997.7 |
| 20260508170407 | 60 | 354 | 11.3 | 21.7 | 0.00 | 1.80 | 0.01 | 82 | 997.7 |
| 20260508165906 | 61 | 352 | 11.3 | 22.6 | 0.00 | 1.81 | 0.01 | 82 | 997.6 |
| 20260508165408 | 61 | 8 | 15.6 | 30.4 | 0.00 | 1.82 | 0.01 | 81 | 997.7 |
| 20260508164906 | 61 | 346 | 7.8 | 17.4 | 0.00 | 1.83 | 0.01 | 80 | 997.5 |
| 20260508164408 | 61 | 356 | 9.6 | 21.7 | 0.00 | 1.84 | 0.01 | 80 | 997.6 |
| 20260508163408 | 62 | 353 | 11.3 | 30.4 | 0.00 | 1.87 | 0.01 | 79 | 997.5 |
| 20260508162907 | 61 | 349 | 13.0 | 22.6 | 0.01 | 1.87 | 0.01 | 81 | 997.4 |
| 20260508161407 | 61 | 344 | 11.3 | 21.7 | 0.01 | 1.90 | 0.01 | 82 | 997.3 |
| 20260508160906 | 61 | 351 | 9.6 | 20.9 | 0.01 | 1.90 | 0.01 | 83 | 997.3 |
| 20260508160408 | 60 | 347 | 10.4 | 19.1 | 0.01 | 1.90 | 0.01 | 83 | 997.4 |
| 20260508155906 | 60 | 341 | 11.3 | 19.1 | 0.01 | 1.91 | 0.01 | 83 | 997.5 |
| 20260508155407 | 60 | 345 | 10.4 | 22.6 | 0.01 | 1.91 | 0.01 | 83 | 997.7 |
| 20260508154906 | 60 | 341 | 14.8 | 27.8 | 0.01 | 1.91 | 0.01 | 83 | 997.7 |
| 20260508153907 | 59 | 344 | 13.9 | 22.6 | 0.01 | 1.91 | 0.01 | 84 | 997.7 |
| 20260508153407 | 61 | 344 | 15.6 | 33.9 | 0.01 | 1.91 | 0.01 | 83 | 997.7 |
| 20260508152907 | 61 | 347 | 14.8 | 28.7 | 0.00 | 1.91 | 0.00 | 82 | 997.6 |
| 20260508152408 | 61 | 354 | 12.2 | 22.6 | 0.00 | 1.91 | 0.00 | 82 | 997.4 |
| 20260508151910 | 61 | 355 | 13.0 | 25.2 | 0.00 | 1.91 | 0.00 | 82 | 997.5 |
| 20260508150906 | 61 | 358 | 14.8 | 26.1 | 0.00 | 1.91 | 0.00 | 80 | 997.8 |
| 20260508145906 | 62 | 1 | 14.8 | 24.3 | 0.00 | 1.91 | 0.00 | 78 | 997.6 |
| 20260508144906 | 61 | 350 | 13.9 | 22.6 | 0.00 | 1.91 | 0.00 | 79 | 997.7 |
| 20260508143907 | 61 | 351 | 13.9 | 22.6 | 0.00 | 1.91 | 0.00 | 80 | 997.9 |
| 20260508143406 | 62 | 348 | 15.6 | 26.1 | 0.00 | 1.91 | 0.00 | 78 | 998.0 |
| 20260508142906 | 63 | 345 | 12.2 | 30.4 | 0.00 | 1.91 | 0.00 | 77 | 998.0 |
| 20260508142406 | 63 | 340 | 13.0 | 22.6 | 0.00 | 1.91 | 0.00 | 77 | 998.1 |
| 20260508141406 | 62 | 350 | 13.9 | 26.1 | 0.00 | 1.91 | 0.00 | 77 | 998.2 |
| 20260508140907 | 62 | 348 | 17.4 | 28.7 | 0.00 | 1.91 | 0.00 | 78 | 998.2 |
| 20260508140407 | 62 | 346 | 12.2 | 25.2 | 0.00 | 1.91 | 0.00 | 80 | 998.4 |
| 20260508135906 | 62 | 334 | 13.0 | 22.6 | 0.00 | 1.91 | 0.00 | 80 | 998.3 |
| 20260508135407 | 62 | 350 | 14.8 | 30.4 | 0.00 | 1.91 | 0.00 | 80 | 998.3 |
| 20260508134906 | 62 | 1 | 13.9 | 22.6 | 0.00 | 1.91 | 0.00 | 80 | 998.3 |
| 20260508134406 | 62 | 350 | 13.9 | 22.6 | 0.00 | 1.91 | 0.00 | 79 | 998.2 |
| 20260508133906 | 62 | 359 | 13.9 | 24.3 | 0.00 | 1.92 | 0.00 | 80 | 998.2 |
| 20260508133406 | 62 | 355 | 13.0 | 22.6 | 0.00 | 1.92 | 0.00 | 81 | 998.1 |
| 20260508132907 | 62 | 346 | 13.0 | 30.4 | 0.00 | 1.94 | 0.00 | 81 | 998.2 |
| 20260508132406 | 62 | 352 | 11.3 | 26.1 | 0.00 | 1.96 | 0.00 | 82 | 998.0 |
| 20260508131906 | 62 | 348 | 10.4 | 25.2 | 0.00 | 1.97 | 0.00 | 82 | 998.1 |
| 20260508131406 | 62 | 354 | 11.3 | 20.0 | 0.00 | 1.98 | 0.00 | 82 | 998.0 |
| 20260508130906 | 62 | 355 | 11.3 | 21.7 | 0.00 | 1.98 | 0.00 | 82 | 998.2 |
| 20260508130407 | 62 | 333 | 11.3 | 19.1 | 0.00 | 1.98 | 0.00 | 82 | 998.2 |
| 20260508125906 | 62 | 352 | 11.3 | 20.9 | 1.03 | 1.99 | 0.00 | 81 | 998.1 |
| 20260508125406 | 62 | 355 | 13.0 | 20.9 | 1.03 | 2.00 | 0.00 | 81 | 998.2 |
| 20260508124907 | 62 | 355 | 10.4 | 22.6 | 1.03 | 2.02 | 0.00 | 81 | 998.3 |
| 20260508124406 | 62 | 0 | 13.0 | 22.6 | 1.03 | 2.02 | 0.00 | 81 | 998.4 |
| 20260508123906 | 62 | 358 | 13.9 | 21.7 | 1.03 | 2.03 | 0.00 | 80 | 998.5 |
| 20260508123406 | 62 | 350 | 11.3 | 21.7 | 1.03 | 2.03 | 0.00 | 79 | 998.5 |
| 20260508122906 | 62 | 340 | 13.9 | 26.1 | 1.03 | 2.04 | 0.00 | 79 | 998.5 |
| 20260508122406 | 62 | 0 | 13.9 | 24.3 | 1.03 | 2.05 | 0.00 | 81 | 998.6 |
| 20260508121906 | 63 | 357 | 12.2 | 25.2 | 1.03 | 2.05 | 0.00 | 82 | 998.5 |
| 20260508121407 | 63 | 352 | 10.4 | 20.9 | 1.03 | 2.06 | 0.00 | 82 | 998.5 |
| 20260508120907 | 63 | 347 | 10.4 | 18.2 | 1.03 | 2.06 | 0.00 | 82 | 998.5 |
| 20260508120407 | 63 | 350 | 9.6 | 19.1 | 1.03 | 2.06 | 0.00 | 82 | 998.6 |
| 20260508115906 | 63 | 346 | 8.7 | 18.2 | 0.00 | 1.85 | 1.03 | 82 | 998.5 |
| 20260508115406 | 63 | 358 | 10.4 | 22.6 | 0.00 | 1.85 | 1.03 | 82 | 998.6 |
| 20260508114906 | 63 | 358 | 11.3 | 22.6 | 0.00 | 1.85 | 1.03 | 82 | 998.6 |
| 20260508114406 | 63 | 353 | 12.2 | 20.0 | 0.00 | 1.86 | 1.03 | 82 | 998.8 |
| 20260508113907 | 63 | 340 | 11.3 | 19.1 | 0.00 | 1.86 | 1.03 | 82 | 998.7 |
| 20260508113406 | 63 | 356 | 11.3 | 19.1 | 0.00 | 1.87 | 1.03 | 82 | 998.8 |
| 20260508112906 | 63 | 348 | 11.3 | 20.0 | 0.00 | 1.87 | 1.03 | 82 | 999.0 |
| 20260508111906 | 62 | 346 | 11.3 | 18.2 | 0.00 | 1.87 | 1.03 | 82 | 999.1 |
| 20260508111409 | 62 | 348 | 8.7 | 17.4 | 0.00 | 1.87 | 1.03 | 82 | 999.1 |
| 20260508110406 | 62 | 354 | 8.7 | 20.0 | 0.00 | 1.87 | 1.03 | 81 | 999.3 |
| 20260508105406 | 63 | 359 | 10.4 | 22.6 | 0.00 | 1.88 | 1.03 | 81 | 999.5 |
| 20260508103907 | 62 | 344 | 7.8 | 17.4 | 0.01 | 1.91 | 1.03 | 81 | 999.5 |
| 20260508103406 | 62 | 352 | 10.4 | 15.6 | 0.01 | 1.93 | 1.03 | 81 | 999.6 |
| 20260508102407 | 62 | 350 | 11.3 | 20.0 | 0.01 | 1.94 | 1.03 | 81 | 999.8 |
| 20260508101406 | 62 | 355 | 11.3 | 20.0 | 0.01 | 1.96 | 1.03 | 82 | 999.8 |
| 20260508100907 | 62 | 350 | 12.2 | 22.6 | 0.01 | 1.98 | 1.03 | 83 | 999.8 |
| 20260508100406 | 62 | 344 | 11.3 | 20.9 | 0.01 | 1.99 | 1.03 | 84 | 999.8 |
| 20260508095406 | 62 | 346 | 8.7 | 20.9 | 0.01 | 2.01 | 1.03 | 85 | 999.7 |
| 20260508094906 | 62 | 347 | 9.6 | 18.2 | 0.01 | 2.03 | 1.03 | 85 | 999.7 |
| 20260508094406 | 62 | 349 | 10.4 | 32.2 | 0.01 | 2.04 | 1.03 | 86 | 999.8 |
| 20260508093906 | 62 | 357 | 11.3 | 19.1 | 0.00 | 2.05 | 1.02 | 87 | 999.7 |
| 20260508093406 | 62 | 357 | 9.6 | 20.0 | 0.00 | 2.06 | 1.02 | 87 | 999.7 |
| 20260508092906 | 62 | 342 | 8.7 | 18.2 | 0.00 | 2.07 | 1.02 | 87 | 999.7 |
| 20260508092406 | 61 | 350 | 12.2 | 21.7 | 0.00 | 2.08 | 1.02 | 87 | 999.7 |
| 20260508091906 | 61 | 338 | 11.3 | 22.6 | 0.00 | 2.08 | 1.02 | 86 | 999.5 |
| 20260508091406 | 61 | 345 | 10.4 | 19.1 | 0.00 | 2.09 | 1.02 | 85 | 999.5 |
| 20260508090907 | 61 | 351 | 13.9 | 25.2 | 0.00 | 2.09 | 1.02 | 87 | 999.7 |
| 20260508090407 | 61 | 344 | 10.4 | 22.6 | 0.00 | 2.10 | 1.02 | 87 | 999.6 |
| 20260508085906 | 62 | 345 | 13.9 | 24.3 | 0.00 | 2.10 | 1.02 | 88 | 999.6 |
| 20260508085406 | 62 | 357 | 7.0 | 17.4 | 0.00 | 2.11 | 1.02 | 88 | 999.3 |
| 20260508084906 | 62 | 0 | 12.2 | 27.8 | 0.00 | 2.13 | 1.02 | 88 | 999.4 |
| 20260508084407 | 62 | 356 | 13.9 | 26.9 | 0.00 | 2.14 | 1.02 | 88 | 999.4 |
| 20260508083406 | 61 | 20 | 14.8 | 20.9 | 0.00 | 2.16 | 1.02 | 88 | 999.7 |
| 20260508082906 | 61 | 16 | 9.6 | 22.6 | 0.00 | 2.16 | 1.02 | 88 | 999.6 |
| 20260508081906 | 61 | 11 | 11.3 | 20.9 | 0.00 | 2.17 | 1.02 | 88 | 999.9 |
| 20260508080906 | 61 | 15 | 12.2 | 22.6 | 0.00 | 2.18 | 1.02 | 89 | 999.9 |
| 20260508080406 | 61 | 12 | 12.2 | 22.6 | 0.00 | 2.19 | 1.02 | 89 | 1000.0 |
| 20260508075906 | 61 | 17 | 10.4 | 18.2 | 0.00 | 2.20 | 1.02 | 89 | 1000.2 |
| 20260508074907 | 61 | 9 | 7.8 | 15.6 | 0.00 | 2.22 | 1.02 | 89 | 1000.4 |
| 20260508074406 | 61 | 9 | 6.1 | 15.6 | 0.00 | 2.22 | 1.02 | 89 | 1000.5 |
| 20260508073906 | 61 | 3 | 8.7 | 18.2 | 0.00 | 2.23 | 1.02 | 89 | 1000.5 |
| 20260508073406 | 61 | 354 | 7.8 | 18.2 | 0.00 | 2.24 | 1.02 | 89 | 1000.7 |
| 20260508072908 | 61 | 348 | 7.8 | 17.4 | 0.00 | 2.24 | 1.02 | 89 | 1000.7 |
| 20260508072408 | 61 | 351 | 7.8 | 18.2 | 0.00 | 2.24 | 1.02 | 89 | 1000.7 |
| 20260508071906 | 61 | 10 | 11.3 | 21.7 | 0.00 | 2.24 | 1.02 | 89 | 1000.7 |
| 20260508065906 | 60 | 348 | 7.8 | 21.7 | 0.00 | 2.25 | 1.02 | 90 | 1000.8 |
| 20260508065407 | 60 | 342 | 7.8 | 17.4 | 0.00 | 2.25 | 1.02 | 90 | 1000.8 |
| 20260508064908 | 60 | 345 | 7.8 | 17.4 | 0.00 | 2.25 | 1.02 | 90 | 1000.7 |
| 20260508064407 | 60 | 347 | 8.7 | 15.6 | 0.01 | 2.25 | 1.02 | 90 | 1000.7 |
| 20260508063406 | 59 | 356 | 7.8 | 17.4 | 0.03 | 2.27 | 1.02 | 90 | 1000.5 |
| 20260508062906 | 60 | 346 | 11.3 | 22.6 | 0.03 | 2.28 | 1.02 | 90 | 1000.6 |
| 20260508062406 | 59 | 349 | 6.1 | 15.6 | 0.05 | 2.28 | 1.02 | 90 | 1000.7 |
| 20260508061906 | 59 | 345 | 7.8 | 17.4 | 0.06 | 2.28 | 1.02 | 90 | 1000.7 |
| 20260508061406 | 59 | 355 | 7.8 | 17.4 | 0.07 | 2.30 | 1.02 | 90 | 1000.8 |
| 20260508060907 | 59 | 351 | 6.1 | 13.0 | 0.09 | 2.31 | 1.02 | 90 | 1000.7 |
| 20260508060407 | 59 | 358 | 8.7 | 18.2 | 0.12 | 2.32 | 1.02 | 90 | 1000.7 |
| 20260508055907 | 59 | 356 | 7.8 | 14.8 | 0.13 | 2.34 | 1.02 | 90 | 1000.7 |
| 20260508055406 | 60 | 32 | 8.7 | 22.6 | 0.13 | 2.36 | 1.02 | 90 | 1000.7 |
| 20260508054907 | 60 | 13 | 12.2 | 21.7 | 0.16 | 2.38 | 1.02 | 90 | 1000.6 |
| 20260508053907 | 61 | 353 | 10.4 | 20.9 | 0.16 | 2.39 | 1.01 | 90 | 1000.7 |
| 20260508053406 | 62 | 2 | 10.4 | 21.7 | 0.14 | 2.39 | 0.99 | 91 | 1000.6 |
| 20260508052906 | 62 | 350 | 7.8 | 24.3 | 0.15 | 2.40 | 0.99 | 91 | 1000.7 |
| 20260508052407 | 62 | 14 | 19.1 | 33.9 | 0.14 | 2.39 | 0.98 | 91 | 1000.8 |
| 20260508051907 | 62 | 11 | 13.9 | 24.3 | 0.13 | 2.42 | 0.97 | 91 | 1000.6 |
| 20260508051406 | 62 | 1 | 14.8 | 33.0 | 0.13 | 2.41 | 0.95 | 91 | 1000.7 |
| 20260508050406 | 63 | 13 | 21.7 | 33.9 | 0.08 | 2.36 | 0.91 | 91 | 1000.6 |
| 20260508045906 | 62 | 7 | 17.4 | 32.2 | 0.06 | 2.35 | 0.89 | 90 | 1000.1 |
| 20260508045406 | 62 | 13 | 17.4 | 33.9 | 0.06 | 2.35 | 0.89 | 90 | 1000.8 |
| 20260508044907 | 62 | 15 | 17.4 | 33.0 | 0.05 | 2.33 | 0.87 | 90 | 1000.8 |
| 20260508044406 | 62 | 359 | 22.6 | 35.6 | 0.04 | 2.32 | 0.86 | 90 | 1000.5 |
| 20260508043907 | 63 | 6 | 13.9 | 32.2 | 0.03 | 2.31 | 0.85 | 90 | 1000.6 |
| 20260508043407 | 63 | 12 | 18.2 | 34.8 | 0.04 | 2.31 | 0.85 | 90 | 1000.7 |
| 20260508042406 | 62 | 18 | 17.4 | 37.4 | 0.03 | 2.30 | 0.83 | 90 | 1000.7 |
| 20260508041906 | 62 | 17 | 20.9 | 33.9 | 0.03 | 2.31 | 0.83 | 90 | 1000.8 |
| 20260508040906 | 62 | 15 | 17.4 | 28.7 | 0.03 | 2.30 | 0.83 | 90 | 1001.1 |
| 20260508035906 | 62 | 8 | 16.5 | 33.0 | 0.04 | 2.30 | 0.83 | 90 | 1001.4 |
| 20260508035406 | 62 | 8 | 21.7 | 35.6 | 0.04 | 2.30 | 0.83 | 90 | 1001.5 |
| 20260508034406 | 62 | 28 | 14.8 | 30.4 | 0.06 | 2.29 | 0.82 | 90 | 1001.5 |
| 20260508033906 | 62 | 16 | 18.2 | 30.4 | 0.08 | 2.29 | 0.82 | 90 | 1001.6 |
| 20260508032907 | 62 | 12 | 12.2 | 30.4 | 0.09 | 2.28 | 0.80 | 90 | 1002.0 |
| 20260508032406 | 62 | 13 | 18.2 | 31.3 | 0.09 | 2.28 | 0.80 | 90 | 1002.2 |
| 20260508031907 | 62 | 16 | 16.5 | 30.4 | 0.10 | 2.28 | 0.80 | 90 | 1002.5 |
| 20260508031406 | 62 | 4 | 14.8 | 22.6 | 0.10 | 2.27 | 0.80 | 90 | 1002.7 |
| 20260508030906 | 62 | 32 | 16.5 | 33.9 | 0.10 | 2.27 | 0.80 | 90 | 1002.9 |
| 20260508030406 | 62 | 11 | 18.2 | 30.4 | 0.10 | 2.27 | 0.80 | 90 | 1002.9 |
| 20260508025906 | 62 | 5 | 12.2 | 26.1 | 0.09 | 2.26 | 0.79 | 90 | 1002.8 |
| 20260508025406 | 62 | 16 | 10.4 | 26.1 | 0.10 | 2.26 | 0.79 | 90 | 1002.8 |
| 20260508024906 | 62 | 21 | 12.2 | 26.1 | 0.10 | 2.25 | 0.78 | 90 | 1003.0 |
| 20260508024406 | 62 | 22 | 8.7 | 17.4 | 0.09 | 2.24 | 0.76 | 90 | 1002.9 |
| 20260508023906 | 62 | 16 | 13.0 | 22.6 | 0.07 | 2.21 | 0.74 | 90 | 1003.2 |
| 20260508022906 | 62 | 16 | 8.7 | 19.1 | 0.05 | 2.19 | 0.72 | 89 | 1003.7 |
| 20260508021906 | 63 | 13 | 9.6 | 20.9 | 0.03 | 2.17 | 0.70 | 90 | 1004.1 |
| 20260508021406 | 63 | 18 | 11.3 | 26.1 | 0.02 | 2.17 | 0.69 | 89 | 1004.1 |
| 20260508020906 | 63 | 19 | 12.2 | 24.3 | 0.02 | 2.17 | 0.69 | 89 | 1004.4 |
| 20260508020407 | 63 | 16 | 11.3 | 28.7 | 0.02 | 2.17 | 0.69 | 89 | 1004.4 |
| 20260508015908 | 63 | 15 | 8.7 | 30.4 | 0.02 | 2.17 | 0.69 | 89 | 1004.5 |
| 20260508015407 | 63 | 14 | 11.3 | 30.4 | 0.02 | 2.16 | 0.69 | 89 | 1004.6 |
| 20260508014407 | 63 | 18 | 9.6 | 17.4 | 0.02 | 2.15 | 0.68 | 89 | 1005.0 |
| 20260508013908 | 63 | 23 | 6.1 | 31.3 | 0.01 | 2.14 | 0.67 | 89 | 1005.2 |
| 20260508013407 | 63 | 10 | 8.7 | 22.6 | 0.01 | 2.14 | 0.67 | 89 | 1005.3 |
| 20260508011907 | 63 | 14 | 10.4 | 20.0 | 0.01 | 2.14 | 0.67 | 89 | 1005.7 |